User: anonymous   Login
Location: Unspecified
(0.0000°N, 0.0000°E)
Time: 08:32:21
(UTC+02:00)
Language:

Cosmos 1933 - Orbit

View from above orbital plane
View from above orbital plane
View from above satellite
View from above satellite

Ground track
Ground track

The orbit data is extracted from the following two-line orbital elements,

1 18958U 88020A   15109.77557407  .00003057  00000-0  23095-3 0  9994
2 18958 082.5287 145.0162 0013773 086.9921 273.2880 15.01982226472975
Epoch (UTC): 19 April 2015 18:36:49
Eccentricity: 0.0013773
inclination: 82.5287°
perigee height: 551 km
apogee height: 570 km
right ascension of ascending node: 145.0162°
argument of perigee: 86.9921°
revolutions per day: 15.01982226
mean anomaly at epoch: 273.2880°
orbit number at epoch: 47297

The dashed part of the orbit path shows where the satellite is in the earth's shadow,  

DLR